timestamp,surface_pressure_avg,surface_temp_avg,battery_voltage,lat,long
2018-08-22 00:00:00+00:00,264.1348,18.5,13.13,47.84626,-54.09684
2018-08-22 00:10:00+00:00,259.2546,18.5,13.05,47.84626,-54.09684
2018-08-22 00:20:00+00:00,259.0698,18.5,13.13,47.84626,-54.09684
2018-08-22 00:30:00+00:00,255.2981,18.49,13.13,47.84626,-54.09684
2018-08-22 00:40:00+00:00,249.1198,18.5,13.13,47.84626,-54.09684
2018-08-22 00:50:00+00:00,246.2498,18.5,13.13,47.84626,-54.09684
2018-08-22 01:00:00+00:00,245.3048,18.53,13.05,47.84626,-54.09684
2018-08-22 01:10:00+00:00,239.2314,18.6,12.97,47.84626,-54.09684
2018-08-22 01:20:00+00:00,236.518,18.66,13.05,47.84626,-54.09684
2018-08-22 01:30:00+00:00,238.2331,18.62,13.05,47.84626,-54.09684
2018-08-22 01:40:00+00:00,236.3731,18.67,13.13,47.84626,-54.09684
2018-08-22 01:50:00+00:00,230.3748,18.8,13.13,47.84626,-54.09684
2018-08-22 02:00:00+00:00,227.9832,18.83,13.05,47.84626,-54.09684
2018-08-22 02:10:00+00:00,226.4998,18.88,12.97,47.84626,-54.09684
2018-08-22 02:20:00+00:00,223.1081,18.9,13.05,47.84626,-54.09684
2018-08-22 02:30:00+00:00,221.6081,18.9,13.05,47.84626,-54.09684
2018-08-22 02:40:00+00:00,221.7415,18.9,13.05,47.84626,-54.09684
2018-08-22 02:50:00+00:00,220.6248,18.9,13.05,47.84626,-54.09684
2018-08-22 03:00:00+00:00,220.3481,18.87,13.05,47.84626,-54.09684
2018-08-22 03:10:00+00:00,223.4632,18.88,12.97,47.84626,-54.09684
2018-08-22 03:20:00+00:00,224.5648,18.8,13.05,47.84626,-54.09684
2018-08-22 03:30:00+00:00,223.1696,18.8,13.05,47.84626,-54.09684
2018-08-22 03:40:00+00:00,225.1381,18.8,13.05,47.84626,-54.09684
2018-08-22 03:50:00+00:00,228.1664,18.8,13.05,47.84626,-54.09684
2018-08-22 04:00:00+00:00,228.1314,18.8,13.05,47.84626,-54.09684
2018-08-22 04:10:00+00:00,229.5181,18.7,12.97,47.84626,-54.09684
2018-08-22 04:20:00+00:00,233.2747,18.77,13.05,47.84626,-54.09684
2018-08-22 04:30:00+00:00,233.9847,18.8,13.05,47.84626,-54.09684
2018-08-22 04:40:00+00:00,231.8148,18.8,13.05,47.84626,-54.09684
2018-08-22 04:50:00+00:00,234.9347,18.7,13.05,47.84626,-54.09684
2018-08-22 05:00:00+00:00,241.9414,18.7,12.97,47.84626,-54.09684
2018-08-22 05:10:00+00:00,243.2496,18.7,12.97,47.84626,-54.09684
2018-08-22 05:20:00+00:00,243.7681,18.7,12.97,47.84626,-54.09684
2018-08-22 05:30:00+00:00,248.7898,18.7,12.97,47.84626,-54.09684
2018-08-22 05:40:00+00:00,252.5248,18.7,13.05,47.84626,-54.09684
2018-08-22 05:50:00+00:00,252.0465,18.7,13.05,47.84626,-54.09684
2018-08-22 06:00:00+00:00,254.4181,18.6,12.97,47.84626,-54.09684
2018-08-22 06:10:00+00:00,261.8797,18.6,12.89,47.84626,-54.09684
2018-08-22 06:20:00+00:00,265.4449,18.66,12.97,47.84626,-54.09684
2018-08-22 06:30:00+00:00,265.5914,18.69,12.97,47.84626,-54.09684
2018-08-22 06:40:00+00:00,270.9747,18.69,12.97,47.84626,-54.09684
2018-08-22 06:50:00+00:00,277.6281,18.7,12.97,47.84626,-54.09684
2018-08-22 07:00:00+00:00,280.4382,18.7,12.97,47.84626,-54.09684
2018-08-22 07:10:00+00:00,282.8064,18.48,12.89,47.84626,-54.09684
2018-08-22 07:20:00+00:00,291.093,18.7,12.97,47.84626,-54.09684
2018-08-22 07:30:00+00:00,296.6562,18.7,12.97,47.84626,-54.09684
2018-08-22 07:40:00+00:00,295.5613,18.5,12.97,47.84626,-54.09684
2018-08-22 07:50:00+00:00,294.8163,18.6,12.97,47.84626,-54.09684
2018-08-22 08:00:00+00:00,297.793,18.59,12.97,47.84626,-54.09684
2018-08-22 08:10:00+00:00,299.7213,18.58,12.89,47.84626,-54.09684
2018-08-22 08:20:00+00:00,301.2415,18.59,12.97,47.84626,-54.09684
2018-08-22 08:30:00+00:00,304.1598,18.59,12.97,47.84626,-54.09684
2018-08-22 08:40:00+00:00,305.9964,18.6,12.97,47.84626,-54.09684
2018-08-22 08:50:00+00:00,305.303,18.59,12.97,47.84626,-54.09684
2018-08-22 09:00:00+00:00,307.3647,18.57,12.89,47.84626,-54.09684
2018-08-22 09:10:00+00:00,308.9614,18.5,12.81,47.84626,-54.09684
2018-08-22 09:20:00+00:00,307.5847,18.5,12.89,47.84626,-54.09684
2018-08-22 09:30:00+00:00,305.0598,18.47,12.89,47.84626,-54.09684
2018-08-22 09:40:00+00:00,304.7964,18.47,12.97,47.84626,-54.09684
2018-08-22 09:50:00+00:00,300.8813,18.5,12.97,47.84626,-54.09684
2018-08-22 10:00:00+00:00,297.6381,18.5,12.89,47.84626,-54.09684
2018-08-22 10:10:00+00:00,296.6945,18.5,12.89,47.84626,-54.09684
2018-08-22 10:20:00+00:00,296.263,18.5,12.97,47.84626,-54.09684
2018-08-22 10:30:00+00:00,288.8714,18.5,12.97,47.84626,-54.09684
2018-08-22 10:40:00+00:00,286.4548,18.5,13.13,47.84626,-54.09684
2018-08-22 10:50:00+00:00,286.9963,18.5,13.21,47.84626,-54.09684
2018-08-22 11:00:00+00:00,280.3614,18.5,13.29,47.84626,-54.09684
2018-08-22 11:10:00+00:00,271.8597,18.49,13.29,47.84626,-54.09684
2018-08-22 11:20:00+00:00,270.5148,18.4,13.37,47.84626,-54.09684
2018-08-22 11:30:00+00:00,267.0648,18.4,13.44,47.84626,-54.09684
2018-08-22 11:40:00+00:00,257.2014,18.4,13.44,47.84626,-54.09684
2018-08-22 11:50:00+00:00,253.7864,18.4,13.44,47.84626,-54.09684
2018-08-22 12:00:00+00:00,253.9448,18.4,13.37,47.84626,-54.09684
2018-08-22 12:10:00+00:00,246.5331,18.42,13.29,47.84626,-54.09684
2018-08-22 12:20:00+00:00,239.4397,18.5,13.53,47.84626,-54.09684
2018-08-22 12:30:00+00:00,240.9897,18.4,13.68,47.84626,-54.09684
2018-08-22 12:40:00+00:00,240.6198,18.5,14.0,47.84626,-54.09684
2018-08-22 12:50:00+00:00,235.6148,18.5,15.2,47.84626,-54.09684
2018-08-22 13:00:00+00:00,231.6082,18.4,15.6,47.84626,-54.09684
2018-08-22 13:10:00+00:00,229.6848,18.39,15.04,47.84626,-54.09684
2018-08-22 13:20:00+00:00,226.5981,18.36,15.11,47.84626,-54.09684
2018-08-22 13:30:00+00:00,224.3047,18.38,14.64,47.84626,-54.09684
2018-08-22 13:40:00+00:00,221.0948,18.39,14.72,47.84626,-54.09684
2018-08-22 13:50:00+00:00,215.5131,18.3,14.72,47.84626,-54.09684
2018-08-22 14:00:00+00:00,214.3882,18.28,14.64,47.84626,-54.09684
2018-08-22 14:10:00+00:00,216.0432,18.26,14.64,47.84626,-54.09684
2018-08-22 14:20:00+00:00,213.9414,18.24,14.64,47.84626,-54.09684
2018-08-22 14:30:00+00:00,211.4031,18.24,14.64,47.84626,-54.09684
2018-08-22 14:40:00+00:00,212.0631,18.24,14.48,47.84626,-54.09684
2018-08-22 14:50:00+00:00,211.0481,18.26,14.64,47.84626,-54.09684
2018-08-22 15:00:00+00:00,207.8181,18.27,14.4,47.84626,-54.09684
2018-08-22 15:10:00+00:00,207.9165,18.22,14.48,47.84626,-54.09684
2018-08-22 15:20:00+00:00,211.4614,18.23,14.48,47.84626,-54.09684
2018-08-22 15:30:00+00:00,212.1214,18.28,14.48,47.84626,-54.09684
2018-08-22 15:40:00+00:00,212.8698,18.28,14.48,47.84626,-54.09684
2018-08-22 15:50:00+00:00,215.5297,18.29,14.48,47.84626,-54.09684
2018-08-22 16:00:00+00:00,217.4882,18.3,14.4,47.84626,-54.09684
2018-08-22 16:10:00+00:00,218.6931,18.3,14.48,47.84626,-54.09684
2018-08-22 16:20:00+00:00,222.9081,18.2,14.32,47.84626,-54.09684
2018-08-22 16:30:00+00:00,229.2164,18.2,14.4,47.84626,-54.09684
2018-08-22 16:40:00+00:00,231.7947,18.2,14.24,47.84626,-54.09684
2018-08-22 16:50:00+00:00,232.9598,18.2,14.4,47.84626,-54.09684
2018-08-22 17:00:00+00:00,237.8248,18.2,14.32,47.84626,-54.09684
2018-08-22 17:10:00+00:00,243.2364,18.1,14.24,47.84626,-54.09684
2018-08-22 17:20:00+00:00,245.2514,18.1,14.32,47.84626,-54.09684
2018-08-22 17:30:00+00:00,251.5347,18.1,14.16,47.84626,-54.09684
2018-08-22 17:40:00+00:00,259.2947,18.1,14.24,47.84626,-54.09684
2018-08-22 17:50:00+00:00,262.0248,18.1,14.08,47.84626,-54.09684
2018-08-22 18:00:00+00:00,263.4864,18.1,14.16,47.84626,-54.09684
2018-08-22 18:10:00+00:00,271.1281,18.1,14.0,47.84626,-54.09684
2018-08-22 18:20:00+00:00,277.7513,18.04,14.08,47.84626,-54.09684
2018-08-22 18:30:00+00:00,281.0697,18.03,14.08,47.84626,-54.09684
2018-08-22 18:40:00+00:00,284.8481,18.0,14.08,47.84626,-54.09684
2018-08-22 18:50:00+00:00,291.9497,18.0,14.08,47.84626,-54.09684
2018-08-22 19:00:00+00:00,297.1014,18.0,14.0,47.84626,-54.09684
2018-08-22 19:10:00+00:00,301.3729,18.0,13.92,47.84626,-54.09684
2018-08-22 19:20:00+00:00,305.183,17.42,13.92,47.84626,-54.09684
2018-08-22 19:30:00+00:00,311.2996,17.82,13.92,47.84626,-54.09684
2018-08-22 19:40:00+00:00,317.4097,18.0,13.92,47.84626,-54.09684
2018-08-22 19:50:00+00:00,321.7764,18.0,13.92,47.84626,-54.09684
2018-08-22 20:00:00+00:00,322.7863,17.9,13.84,47.84626,-54.09684
2018-08-22 20:10:00+00:00,325.098,17.8,13.68,47.84626,-54.09684
2018-08-22 20:20:00+00:00,327.593,17.82,13.76,47.84626,-54.09684
2018-08-22 20:30:00+00:00,330.2129,17.89,13.68,47.84626,-54.09684
2018-08-22 20:40:00+00:00,332.2413,17.9,13.68,47.84626,-54.09684
2018-08-22 20:50:00+00:00,333.4514,17.89,13.68,47.84626,-54.09684
2018-08-22 21:00:00+00:00,332.348,17.9,13.68,47.84626,-54.09684
2018-08-22 21:10:00+00:00,333.0247,17.9,13.53,47.84626,-54.09684
2018-08-22 21:20:00+00:00,336.3463,17.4,13.6,47.84626,-54.09684
2018-08-22 21:30:00+00:00,340.0396,17.4,13.53,47.84626,-54.09684
2018-08-22 21:40:00+00:00,338.5229,17.5,13.53,47.84626,-54.09684
2018-08-22 21:50:00+00:00,336.1463,17.6,13.53,47.84626,-54.09684
2018-08-22 22:00:00+00:00,338.5879,17.5,13.44,47.84626,-54.09684
2018-08-22 22:10:00+00:00,338.4996,17.5,13.29,47.84626,-54.09684
2018-08-22 22:20:00+00:00,334.4647,17.6,13.29,47.84626,-54.09684
2018-08-22 22:30:00+00:00,333.298,17.5,13.21,47.84626,-54.09684
2018-08-22 22:40:00+00:00,334.593,17.47,13.21,47.84626,-54.09684
2018-08-22 22:50:00+00:00,330.188,17.51,13.21,47.84626,-54.09684
2018-08-22 23:00:00+00:00,321.658,17.81,13.13,47.84626,-54.09684
2018-08-22 23:10:00+00:00,316.9396,17.3,13.05,47.84626,-54.09684
2018-08-22 23:20:00+00:00,314.9813,16.85,13.13,47.84626,-54.09684
2018-08-22 23:30:00+00:00,309.7446,17.46,13.13,47.84626,-54.09684
2018-08-22 23:40:00+00:00,300.1847,17.44,13.13,47.84626,-54.09684
2018-08-22 23:50:00+00:00,293.853,16.89,13.13,47.84626,-54.09684
